CCM61AT LFML-LFKJ

Flight info

Callsign CCM61AT
Flight time 0h 43m
Altitude 23000
Route TINOT Z154 RUBAS
Aircraft A320/M-SDE3FGHIRWY/LB1

Departure

Time 2026-04-21 22:09
Airport Marseille Provence Airport (LFML)

Arrival

Time 2026-04-21 22:53
Airport Ajaccio Napoléon Bonaparte airport (LFKJ)
Time Latitude Longitude Altitude Speed Heading
2026-04-21 21:45 43.43861 5.22302 45 ft 0 kts 73°
2026-04-21 21:45 43.43862 5.22309 45 ft 0 kts 74°
2026-04-21 22:00 43.43859 5.22289 45 ft 4 kts 90°
2026-04-21 22:00 43.43865 5.22255 44 ft 4 kts 128°
2026-04-21 22:00 43.43884 5.22230 41 ft 4 kts 142°
2026-04-21 22:01 43.43903 5.22207 42 ft 4 kts 115°
2026-04-21 22:01 43.43905 5.22193 38 ft 3 kts 44°
2026-04-21 22:01 43.43897 5.22169 38 ft 4 kts 120°
2026-04-21 22:01 43.43912 5.22144 40 ft 2 kts 134°
2026-04-21 22:02 43.43914 5.22142 39 ft 0 kts 134°
2026-04-21 22:04 43.43913 5.22143 39 ft 1 kts 134°
2026-04-21 22:04 43.43897 5.22165 37 ft 5 kts 136°
2026-04-21 22:04 43.43851 5.22201 42 ft 10 kts 156°
2026-04-21 22:04 43.43773 5.22229 45 ft 12 kts 180°
2026-04-21 22:05 43.43709 5.22160 46 ft 11 kts 227°
2026-04-21 22:05 43.43652 5.22107 46 ft 9 kts 183°
2026-04-21 22:05 43.43604 5.22137 47 ft 6 kts 151°
2026-04-21 22:05 43.43576 5.22158 47 ft 4 kts 151°
2026-04-21 22:06 43.43544 5.22183 49 ft 6 kts 150°
2026-04-21 22:06 43.43502 5.22216 49 ft 8 kts 150°
2026-04-21 22:06 43.43429 5.22272 52 ft 16 kts 155°
2026-04-21 22:06 43.43326 5.22333 56 ft 16 kts 133°
2026-04-21 22:07 43.43251 5.22438 59 ft 15 kts 136°
2026-04-21 22:07 43.43180 5.22539 62 ft 14 kts 134°
2026-04-21 22:07 43.43134 5.22605 61 ft 15 kts 134°
2026-04-21 22:07 43.43064 5.22706 62 ft 15 kts 134°
2026-04-21 22:08 43.42993 5.22805 67 ft 15 kts 133°
2026-04-21 22:08 43.42908 5.22868 68 ft 14 kts 181°
2026-04-21 22:08 43.42830 5.22786 70 ft 15 kts 240°
2026-04-21 22:08 43.42855 5.22662 65 ft 15 kts 314°
2026-04-21 22:09 43.43009 5.22441 59 ft 67 kts 314°
2026-04-21 22:09 43.43504 5.21739 44 ft 135 kts 314°
2026-04-21 22:09 43.44262 5.20643 206 ft 170 kts 313°
2026-04-21 22:09 43.45084 5.19461 838 ft 170 kts 314°
2026-04-21 22:10 43.45938 5.18252 1309 ft 186 kts 315°
2026-04-21 22:10 43.46895 5.16899 1659 ft 208 kts 314°
2026-04-21 22:10 43.47631 5.15157 2201 ft 219 kts 281°
2026-04-21 22:10 43.47458 5.13102 3010 ft 222 kts 245°
2026-04-21 22:11 43.46391 5.11575 3817 ft 227 kts 206°
2026-04-21 22:11 43.44887 5.10915 4675 ft 228 kts 196°
2026-04-21 22:11 43.43350 5.10360 5522 ft 228 kts 197°
2026-04-21 22:11 43.41809 5.09810 6317 ft 230 kts 197°
2026-04-21 22:12 43.40250 5.09252 7045 ft 233 kts 198°
2026-04-21 22:12 43.38667 5.08680 7775 ft 237 kts 198°
2026-04-21 22:12 43.37010 5.08101 8230 ft 257 kts 198°
2026-04-21 22:12 43.35195 5.07494 8595 ft 279 kts 197°
2026-04-21 22:13 43.33292 5.06871 9259 ft 289 kts 197°
2026-04-21 22:13 43.31293 5.06223 10033 ft 294 kts 197°
2026-04-21 22:13 43.29253 5.05559 10351 ft 317 kts 197°
2026-04-21 22:13 43.27041 5.04831 10665 ft 336 kts 197°
2026-04-21 22:14 43.24729 5.04111 11308 ft 344 kts 192°
2026-04-21 22:14 43.22305 5.04231 12024 ft 357 kts 168°
2026-04-21 22:14 43.20054 5.05746 12745 ft 369 kts 142°
2026-04-21 22:14 43.18430 5.08482 13460 ft 377 kts 119°
2026-04-21 22:15 43.17229 5.11697 14137 ft 381 kts 117°
2026-04-21 22:15 43.16054 5.14968 14777 ft 384 kts 116°
2026-04-21 22:15 43.14880 5.18264 15414 ft 388 kts 116°
2026-04-21 22:15 43.13689 5.21601 16041 ft 391 kts 116°
2026-04-21 22:16 43.12467 5.24954 16674 ft 395 kts 120°
2026-04-21 22:16 43.10877 5.28016 17277 ft 397 kts 134°
2026-04-21 22:16 43.08803 5.30512 17891 ft 398 kts 148°
2026-04-21 22:16 43.06365 5.32303 18470 ft 398 kts 161°
2026-04-21 22:17 43.03702 5.33292 19017 ft 397 kts 175°
2026-04-21 22:17 43.00951 5.33508 19526 ft 397 kts 184°
2026-04-21 22:17 42.98178 5.33455 20059 ft 400 kts 186°
2026-04-21 22:17 42.95387 5.33290 20591 ft 403 kts 187°
2026-04-21 22:18 42.92581 5.33069 21121 ft 405 kts 187°
2026-04-21 22:18 42.89758 5.32832 21666 ft 408 kts 187°
2026-04-21 22:18 42.86911 5.32602 22221 ft 411 kts 186°
2026-04-21 22:18 42.84041 5.32395 22745 ft 414 kts 186°
2026-04-21 22:19 42.81157 5.32206 22924 ft 415 kts 186°
2026-04-21 22:19 42.78285 5.32034 22955 ft 410 kts 185°
2026-04-21 22:19 42.75439 5.32258 22955 ft 413 kts 171°
2026-04-21 22:19 42.72706 5.33473 22962 ft 417 kts 155°
2026-04-21 22:20 42.70282 5.35654 22962 ft 421 kts 139°
2026-04-21 22:20 42.68368 5.38659 22960 ft 422 kts 122°
2026-04-21 22:20 42.67096 5.42235 22962 ft 422 kts 108°
2026-04-21 22:20 42.66150 5.46015 22962 ft 422 kts 108°
2026-04-21 22:21 42.65204 5.49789 22958 ft 422 kts 108°
2026-04-21 22:21 42.64255 5.53557 22954 ft 422 kts 108°
2026-04-21 22:21 42.63302 5.57337 22963 ft 422 kts 108°
2026-04-21 22:21 42.62349 5.61109 22959 ft 422 kts 108°
2026-04-21 22:22 42.61395 5.64879 22963 ft 422 kts 108°
2026-04-21 22:22 42.60452 5.68603 22959 ft 422 kts 108°
2026-04-21 22:22 42.59499 5.72368 22965 ft 422 kts 108°
2026-04-21 22:22 42.58545 5.76139 22953 ft 423 kts 108°
2026-04-21 22:23 42.57587 5.79914 22952 ft 423 kts 108°
2026-04-21 22:23 42.56630 5.83683 22951 ft 423 kts 108°
2026-04-21 22:23 42.55669 5.87462 22950 ft 423 kts 108°
2026-04-21 22:23 42.54709 5.91237 22952 ft 424 kts 108°
2026-04-21 22:24 42.53746 5.95008 22949 ft 424 kts 108°
2026-04-21 22:24 42.52776 5.98786 22950 ft 424 kts 108°
2026-04-21 22:24 42.51808 6.02554 22952 ft 424 kts 108°
2026-04-21 22:24 42.50842 6.06324 22953 ft 424 kts 108°
2026-04-21 22:25 42.49874 6.10099 22955 ft 424 kts 108°
2026-04-21 22:25 42.48902 6.13868 22950 ft 424 kts 108°
2026-04-21 22:25 42.47924 6.17645 22945 ft 425 kts 108°
2026-04-21 22:25 42.46946 6.21415 22945 ft 425 kts 108°
2026-04-21 22:26 42.45966 6.25194 22945 ft 425 kts 108°
2026-04-21 22:26 42.44988 6.28965 22945 ft 425 kts 108°
2026-04-21 22:26 42.44009 6.32740 22945 ft 425 kts 108°
2026-04-21 22:26 42.43026 6.36518 22948 ft 425 kts 108°
2026-04-21 22:27 42.42043 6.40283 22950 ft 425 kts 108°
2026-04-21 22:27 42.41058 6.44051 22965 ft 424 kts 108°
2026-04-21 22:27 42.40073 6.47813 22975 ft 424 kts 108°
2026-04-21 22:27 42.39085 6.51581 22956 ft 425 kts 108°
2026-04-21 22:28 42.38099 6.55347 22957 ft 425 kts 108°
2026-04-21 22:28 42.37113 6.59105 22956 ft 425 kts 108°
2026-04-21 22:28 42.36123 6.62875 22955 ft 425 kts 108°
2026-04-21 22:28 42.35132 6.66638 22956 ft 425 kts 108°
2026-04-21 22:29 42.34137 6.70400 22961 ft 425 kts 108°
2026-04-21 22:29 42.33141 6.74160 22960 ft 425 kts 108°
2026-04-21 22:29 42.32156 6.77872 22958 ft 425 kts 108°
2026-04-21 22:29 42.31145 6.81677 22959 ft 425 kts 108°
2026-04-21 22:30 42.30158 6.85390 22979 ft 425 kts 108°
2026-04-21 22:30 42.29158 6.89150 22970 ft 426 kts 108°
2026-04-21 22:30 42.28155 6.92910 22964 ft 426 kts 109°
2026-04-21 22:30 42.27150 6.96677 22962 ft 427 kts 109°
2026-04-21 22:31 42.26141 7.00447 22961 ft 427 kts 109°
2026-04-21 22:31 42.25133 7.04219 22962 ft 427 kts 109°
2026-04-21 22:31 42.24126 7.07989 22962 ft 427 kts 109°
2026-04-21 22:31 42.23119 7.11756 22963 ft 427 kts 109°
2026-04-21 22:32 42.22108 7.15529 22967 ft 427 kts 109°
2026-04-21 22:32 42.21092 7.19296 22968 ft 427 kts 109°
2026-04-21 22:32 42.20076 7.23058 22969 ft 427 kts 109°
2026-04-21 22:32 42.19055 7.26823 22970 ft 427 kts 109°
2026-04-21 22:33 42.18032 7.30587 22974 ft 427 kts 109°
2026-04-21 22:33 42.17010 7.34349 22964 ft 427 kts 109°
2026-04-21 22:33 42.15991 7.38111 22968 ft 427 kts 109°
2026-04-21 22:33 42.14977 7.41852 22833 ft 422 kts 109°
2026-04-21 22:34 42.13976 7.45534 22560 ft 413 kts 109°
2026-04-21 22:34 42.12992 7.49138 22292 ft 408 kts 109°
2026-04-21 22:34 42.12017 7.52704 22033 ft 405 kts 109°
2026-04-21 22:34 42.11044 7.56255 21741 ft 401 kts 109°
2026-04-21 22:35 42.10081 7.59767 21264 ft 399 kts 109°
2026-04-21 22:35 42.09120 7.63273 20748 ft 398 kts 109°
2026-04-21 22:35 42.08161 7.66776 20238 ft 398 kts 109°
2026-04-21 22:35 42.07204 7.70262 19729 ft 397 kts 109°
2026-04-21 22:36 42.05294 7.77177 18717 ft 396 kts 110°
2026-04-21 22:36 42.04333 7.80653 18201 ft 397 kts 110°
2026-04-21 22:36 42.03375 7.84128 17665 ft 395 kts 110°
2026-04-21 22:37 42.02421 7.87584 17154 ft 393 kts 110°
2026-04-21 22:37 42.01468 7.91021 16673 ft 391 kts 110°
2026-04-21 22:37 42.00517 7.94437 16184 ft 389 kts 110°
2026-04-21 22:37 41.99556 7.97885 15701 ft 388 kts 110°
2026-04-21 22:38 41.98491 8.01213 15208 ft 387 kts 119°
2026-04-21 22:38 41.96997 8.04139 14779 ft 384 kts 131°
2026-04-21 22:38 41.95090 8.06625 14338 ft 380 kts 142°
2026-04-21 22:38 41.93061 8.08896 13899 ft 378 kts 142°
2026-04-21 22:39 41.91045 8.11157 13404 ft 376 kts 142°
2026-04-21 22:39 41.89047 8.13402 12981 ft 373 kts 141°
2026-04-21 22:39 41.87069 8.15626 12539 ft 369 kts 141°
2026-04-21 22:39 41.85109 8.17829 12104 ft 366 kts 141°
2026-04-21 22:40 41.83166 8.20008 11655 ft 363 kts 142°
2026-04-21 22:40 41.81232 8.22173 11218 ft 360 kts 142°
2026-04-21 22:40 41.79317 8.24316 10777 ft 358 kts 142°
2026-04-21 22:40 41.77414 8.26442 10338 ft 355 kts 142°
2026-04-21 22:41 41.75532 8.28544 10106 ft 346 kts 142°
2026-04-21 22:41 41.73720 8.30570 9999 ft 334 kts 142°
2026-04-21 22:41 41.71965 8.32528 9830 ft 324 kts 142°
2026-04-21 22:41 41.70245 8.34443 9481 ft 321 kts 142°
2026-04-21 22:42 41.68535 8.36346 9103 ft 318 kts 142°
2026-04-21 22:42 41.66852 8.38220 8611 ft 312 kts 142°
2026-04-21 22:42 41.65275 8.40188 7985 ft 308 kts 131°
2026-04-21 22:42 41.64082 8.42520 7625 ft 303 kts 118°
2026-04-21 22:43 41.63151 8.45039 7265 ft 300 kts 108°
2026-04-21 22:43 41.62808 8.47748 6984 ft 292 kts 86°
2026-04-21 22:43 41.63121 8.50330 6890 ft 274 kts 68°
2026-04-21 22:43 41.63948 8.52527 6755 ft 257 kts 51°
2026-04-21 22:44 41.64954 8.54441 6648 ft 247 kts 51°
2026-04-21 22:44 41.65951 8.56283 6536 ft 242 kts 44°
2026-04-21 22:44 41.67232 8.57677 6415 ft 236 kts 24°
2026-04-21 22:44 41.68739 8.58468 6242 ft 232 kts 15°
2026-04-21 22:45 41.70267 8.59169 6075 ft 232 kts 15°
2026-04-21 22:45 41.71789 8.59873 5917 ft 232 kts 15°
2026-04-21 22:45 41.73315 8.60583 5755 ft 231 kts 16°
2026-04-21 22:45 41.74817 8.61280 5599 ft 231 kts 16°
2026-04-21 22:46 41.76337 8.61987 5439 ft 231 kts 16°
2026-04-21 22:46 41.77852 8.62693 5280 ft 230 kts 16°
2026-04-21 22:46 41.79365 8.63401 5124 ft 230 kts 16°
2026-04-21 22:46 41.80873 8.64109 4990 ft 230 kts 17°
2026-04-21 22:47 41.82382 8.64815 4838 ft 230 kts 17°
2026-04-21 22:47 41.83887 8.65517 4672 ft 229 kts 17°
2026-04-21 22:47 41.85395 8.66219 4516 ft 229 kts 17°
2026-04-21 22:47 41.86895 8.66920 4358 ft 228 kts 17°
2026-04-21 22:48 41.88393 8.67621 4203 ft 228 kts 17°
2026-04-21 22:48 41.89889 8.68323 4043 ft 228 kts 18°
2026-04-21 22:48 41.91375 8.69056 3814 ft 229 kts 25°
2026-04-21 22:48 41.92594 8.70376 3488 ft 222 kts 49°
2026-04-21 22:49 41.93570 8.71915 3173 ft 210 kts 49°
2026-04-21 22:49 41.94476 8.73341 2917 ft 191 kts 49°
2026-04-21 22:49 41.95301 8.74636 2658 ft 172 kts 50°
2026-04-21 22:49 41.96043 8.75802 2403 ft 157 kts 50°
2026-04-21 22:50 41.96725 8.76874 2186 ft 147 kts 49°
2026-04-21 22:50 41.97381 8.77903 1984 ft 143 kts 49°
2026-04-21 22:50 41.98023 8.78913 1787 ft 142 kts 49°
2026-04-21 22:50 41.98573 8.79974 1574 ft 140 kts 70°
2026-04-21 22:51 41.98596 8.81265 1401 ft 141 kts 106°
2026-04-21 22:51 41.98029 8.82315 1189 ft 141 kts 145°
2026-04-21 22:51 41.97114 8.82752 995 ft 141 kts 174°
2026-04-21 22:51 41.96146 8.82590 778 ft 141 kts 200°
2026-04-21 22:52 41.95250 8.82029 586 ft 142 kts 204°
2026-04-21 22:52 41.94353 8.81472 381 ft 142 kts 204°
2026-04-21 22:52 41.93455 8.80905 212 ft 144 kts 203°
2026-04-21 22:52 41.92553 8.80350 27 ft 136 kts 204°
2026-04-21 22:53 41.91902 8.79948 18 ft 60 kts 205°
2026-04-21 22:53 41.91693 8.79813 17 ft 16 kts 205°
2026-04-21 22:53 41.91560 8.79730 18 ft 23 kts 204°
2026-04-21 22:53 41.91408 8.79639 19 ft 24 kts 206°
2026-04-21 22:54 41.91270 8.79534 24 ft 18 kts 216°
2026-04-21 22:54 41.91261 8.79419 22 ft 14 kts 318°
2026-04-21 22:54 41.91306 8.79390 25 ft 0 kts 335°
2026-04-21 22:56 41.91309 8.79388 24 ft 3 kts 334°
2026-04-21 22:56 41.91343 8.79366 26 ft 7 kts 334°
2026-04-21 22:56 41.91419 8.79335 30 ft 16 kts 355°
2026-04-21 22:57 41.91550 8.79390 31 ft 24 kts 25°
2026-04-21 22:57 41.91708 8.79489 26 ft 24 kts 25°
2026-04-21 22:57 41.91834 8.79567 30 ft 13 kts 25°
2026-04-21 22:57 41.91911 8.79614 26 ft 5 kts 17°
2026-04-21 22:58 41.91933 8.79594 29 ft 3 kts 308°
2026-04-21 22:58 41.91950 8.79580 26 ft 2 kts 336°
2026-04-21 22:58 41.91953 8.79578 26 ft 0 kts 339°
2026-04-21 22:58 41.91956 8.79577 26 ft 0 kts 340°